Location: Claflin County Park
(44.8478°N, 87.5507°W)
Time: 01:10:42
(UTC+00:00)

Cosmos 1892 Rocket - Pass Details

Date: 10 December 2025
Orbit: 600 x 626 km, 82.5° (Epoch: 17 January)

Event Time Altitude Azimuth Distance (km) Brightness Sun altitude
Rises 10:44:05 0° 178° (S) 2,859 7.1 -26.2°
Reaches altitude 10° 10:46:18 10° 174° (S) 1,964 6.3 -25.8°
Maximum altitude 10:50:35 60° 95° (E) 707 4.0 -25.0°
Drops below altitude 10° 10:54:56 10° 16° (NNE) 1,996 6.2 -24.3°
Sets 10:57:12 0° 13° (NNE) 2,911 7.1 -23.9°
